7 * 24
多渠道服务支持
JILIN-01 GAOFEN 3D 32(吉林一号高分3D 32星)是中国于2022年5月5日发射的商业遥感卫星,隶属于“吉林一号”卫星星座高分系列。该星座由中国长春光学精密机械与物理研究所打造,是我国自主商用遥感卫星的代表。 卫星继承高分系列亚米级成像优势,侧重高精度三维测绘,可获取高分辨率对地观测数据,服务于国土监测、资源勘探、地理测绘、农林管理等领域,进一步扩充了吉林一号星座的遥感服务能力。
中国
(CN)
| 数据来源 | 国际轨道数据 |
| 星历时间: | 2025-09-30T13:54:45+0800 轨道信息已过期346天 |
| 半长轴: | 6562.428km |
| 偏心率: | 0.0011026 |
| 轨道倾角: | 97.568° |
| 近地点辐角 | 261.811° |
| 升交点赤经 | 24.294° |
| 平近点角 | 98.193° |
| 近地点: | 177.057km |
| 远地点: | 191.529km |
| 周期: | 88.177分钟 |
| 每日圈数: | 16.330743 |